Weather in Hisar

India     29°08′58″N   75°43′10″E
temp.,
°C
wind,
m/s
gust,
m/s
humid.,
%
clouds,
%
prec.,
mm/h
press.,
hPa
HPBL,
m
19 april, mon
mon1923:30+28nne2323100 0.0 100928
02:30+25ne333387 0.0 100850
05:30+24e223529 0.0 100814
08:30+30ne22231 0.0 1009346
11:30+35sw35165 0.0 10082373
14:30+38w471185 0.0 10054199
17:30+37w66994 0.0 10033879
20:30+32wsw331430 0.0 100524
20 april, tue
tue2023:30+29n47174 0.0 1005111
02:30+27ne331632 0.0 100444
05:30+26ne2215100 0.0 100415
08:30+31nw6915100 0.0 1006649
11:30+36e561173 0.0 10051938
14:30+37wsw5710100 0.0 10024874
17:30+35e3414100 0.0 1001570
20:30+21nw91465100 0.3 1008496
21 april, wed
wed2123:30+23sw22532 0.6 100681
02:30+22wsw22625 0.0 100668
05:30+21ne11620 0.0 100712
08:30+25wsw34455 0.0 1010706
11:30+30wsw562767 0.0 10091269
14:30+33wsw7721100 0.0 10071623
17:30+32w67214 0.0 10061584
20:30+27w33280 0.0 100835
22 april, thu
thu2223:30+26wsw22310 0.0 100911
02:30+24nw11332 0.0 100811
05:30+23n22370 0.0 100915
08:30+28ese33270 0.0 1011373
11:30+34sw12160 0.0 10102200
14:30+36wsw45130 0.0 10073269
17:30+35sw46130 0.0 10063205
20:30+31wnw47194 0.0 1007128
23 april, fri
fri2323:30+28ne45230 0.0 100879
02:30+26ene473033 0.0 1006133
05:30+25e48300 0.0 1006124
08:30+31s572051 0.0 1008540
11:30+38ssw781167 0.0 10072744
14:30+40sw81010100 0.0 10044962
17:30+39wsw710105 0.0 10024353
20:30+32nne915180 0.0 1005429